Regional Weather Roundup
Issued by NWS Upton, NY

Current Version | Previous Version | Graphics & Text | Print | Product List | Glossary Off
Versions: 1 2 3 4 5 6 7 8 9 10 11 12 13 14 15 16 17 18 19 20 21 22 23 24 25 26 27 28 29 30 31 32 33 34 35 36 37 38 39 40 41 42 43 44 45 46 47 48 49 50

000
ASUS41 KOKX 171205
RWROKX

REGIONAL WEATHER ROUNDUP
NATIONAL WEATHER SERVICE NEW YORK NY
800 AM EDT WED SEP 17 2014

NOTE: "FAIR" INDICATES FEW OR NO CLOUDS BELOW 12,000 FEET WITH NO
SIGNIFICANT WEATHER AND/OR OBSTRUCTIONS TO VISIBILITY.

NYZ071-072-176-178-NJZ106-104-171300-
NEW YORK CITY METRO AREA


CITY           SKY/WX    TMP DP  RH WIND       PRES   REMARKS
CENTRAL PARK   SUNNY     57  47  69 CALM      30.08R
LAGUARDIA APRT MOSUNNY   61  48  62 CALM      30.05R
KENNEDY INTL   MOSUNNY   59  53  80 NE3       30.06R
NEWARK/LIBERTY MOSUNNY   58  49  72 NE6       30.06R
BRNX BOT. GARD   N/A     61  52  72 N2        30.07R
TETERBORO      SUNNY     57  48  72 CALM      30.05R
$$

NYZ177-179-078>081-171300-
LONG ISLAND NEW YORK

CITY           SKY/WX    TMP DP  RH WIND       PRES   REMARKS
FARMINGDALE    SUNNY     58  53  84 N7        30.06R
ISLIP          MOSUNNY   59  53  80 CALM      30.04R
SHIRLEY        SUNNY     58  51  78 N6        30.05R
WESTHAMPTON    SUNNY     54  51  90 N5        30.05R
MONTAUK POINT    N/A     61  50  67 N5        30.04S
$$

NYZ052-065-067-171300-
HUDSON VALLEY

CITY           SKY/WX    TMP DP  RH WIND       PRES   REMARKS
WHITE PLAINS   SUNNY     54  50  86 NW7       30.05R
NEWBURGH       SUNNY     46  46 100 CALM      30.07S
MONTGOMERY     PTSUNNY   46  45  96 S5        30.07S
POUGHKEEPSIE   FOG       48  48 100 CALM      30.06S VSB 3/4
ALBANY         MOSUNNY   49  44  83 S5        30.06R
$$

NJZ001-105-106-008-010-013-015-019>022-104-171300-
NEW JERSEY

CITY           SKY/WX    TMP DP  RH WIND       PRES   REMARKS
NEWARK/LIBERTY MOSUNNY   58  49  72 NE6       30.06R
TETERBORO      SUNNY     57  48  72 CALM      30.05R
CALDWELL       SUNNY     51  47  86 CALM      30.07R
MORRISTOWN     SUNNY     50  48  93 CALM      30.07R
SOMERVILLE     SUNNY     47  44  90 CALM      30.05R
LINDEN         FAIR      60  53  76 CALM      30.07S
SUSSEX         FOG       46  44  93 CALM      30.08R VSB<1/4
ANDOVER          N/A     44  44 100 CALM      30.08R
TRENTON        MOSUNNY   55  50  83 N6        30.05R
MILLVILLE      SUNNY     57  52  83 CALM      30.05R
ATLANTIC CITY  PTSUNNY   56  52  86 N5        30.05R
WRIGHTSTOWN    SUNNY     55  51  89 N6        30.03S
TOMS RIVER     SUNNY     54  48  82 CALM      30.05S
BELMAR         SUNNY     55  48  76 N3        30.05R
$$

PAZ047>061-062-071-171300-
EASTERN PENNSYLVANIA

CITY           SKY/WX    TMP DP  RH WIND       PRES   REMARKS
PHILADELPHIA   MOSUNNY   59  50  72 N7        30.06R
ALLENTOWN      SUNNY     50  48  93 CALM      30.08R
SCRANTON       CLOUDY    44  42  93 E6        30.08S
$$

CTZ002-004>006-009-010-012-RIZ004-006-007-MAZ004-011-015-171300-
SOUTHERN NEW ENGLAND
 IN CT

CITY           SKY/WX    TMP DP  RH WIND       PRES   REMARKS
BRADLEY INTL   MOSUNNY   52  47  83 VRB3      30.04S
HARTFORD       FOG       48  48 100 S3        30.05S VSB 1/4
DANBURY        SUNNY     47  46  97 CALM      30.07S
WTRBRY/OXFORD  NOT AVBL
BRIDGEPORT     SUNNY     57  49  74 CALM      30.05R
MERIDEN        SUNNY     50  47  89 CALM      30.06R
NEW HAVEN      MOSUNNY   55  50  83 N3        30.05R
CHESTER        FAIR      54  46  76 N7        30.04F
GROTON         SUNNY     54  48  80 N5        30.03S
WILLIMANTIC    FOG       46  45  96 CALM      30.05R VSB 1/4

 IN RI

CITY           SKY/WX    TMP DP  RH WIND       PRES   REMARKS
PROVIDENCE     MOSUNNY   55  48  77 W5        30.03S
BLOCK ISLAND   SUNNY     59  48  67 N6        30.03R
WESTERLY       SUNNY     53  49  86 CALM      30.04R

 IN MA

CITY           SKY/WX    TMP DP  RH WIND       PRES   REMARKS
BOSTON         SUNNY     58  48  69 NW8       30.02R
WORCESTER      SUNNY     52  45  77 W10       30.03R
WESTFIELD      SUNNY     49  45  86 CALM      30.05R
PROVINCETOWN   SUNNY     61  55  82 NW7       30.01S
NANTUCKET      SUNNY     63  57  81 N3        30.00S
$$

ANZ330-335-338-340-345-350-353-355-171300-
COASTAL MARINE OBSERVATIONS


STATION/POSITION TIME  SKY/WX   TEMP    WIND        PRES    VSBY  WAVE
                                AIR SEA DIR/SP/G                  HT/PER
                 (UTC)          (F)     (DEG/KT/KT) (MB)    (MI)  (FT/S)
NY HARB ENTRANCE NOT AVBL
4S FIRE IS       NOT AVBL
23SW MTP         1200                                 N/A           3/15
HUDSON CANYON    1200            67 74   30/ 12/ 16 1015.8          4/12
EXECUTION ROCKS  1200            60 71   10/  6/  8   N/A
WESTERN LI SOUND 1200            58     360/ 10/ 12   N/A           0
CENTRAL LI SOUND 1100            60 70  340/ 12/ 14   N/A           1/ 3
EASTERN LI SOUND 1100            62 68  340/ 10/ 12   N/A
ROBBINS REEF     1200            58     340/  5/  7 1016.5
$$


>>>>>>>>>>>>>>>>>>>>>>>>>>>> KEY <<<<<<<<<<<<<<<<<<<<<<<<<<<
>                                                          <
>     SKY/WX - SKY CONDITION/PRESENT WEATHER               <
>     TMP    - TEMPERATURE IN FAHRENHEIT                   <
>     DP     - DEWPOINT IN FAHRENHEIT                      <
>     RH     - RELATIVE HUMIDITY IN PERCENT                <
>     WIND   - DIRECTION AND SPEED IN MPH                  <
>     PRES   - MEAN SEA LEVEL PRESSURE IN INCHES OF HG     <
>     WCI    - WIND CHILL INDEX                            <
>     VSB    - VISIBILITY IN MILES                         <
>     HX     - HEAT INDEX                                  <
>     TC     - TEMPERATURE IN CELSIUS                      <
>     VRB    - VARIABLE WIND DIRECTION                     <
>                                                          <
>>>>>>>>>>>>>>>>>>>>>>>>>>>> KEY <<<<<<<<<<<<<<<<<<<<<<<<<<<





USA.gov is the U.S. government's official web portal to all federal, state and local government web resources and services.